Location: Brompton
(51.4000°N, 0.5333°E)
Time: 03:08:55
(UTC+00:00)

Gbstr 26 Del rocket - Pass Details

Date: 11 May 2021
Orbit: 493 x 1263 km, 51.8° (Epoch: 13 June)

Event Time Altitude Azimuth Distance (km) Brightness Sun altitude
Rises 20:20:17 0° 264° (W) 4,206 8.0 -6.3°
Reaches altitude 10° 20:23:14 10° 265° (W) 3,210 7.4 -6.7°
Maximum altitude 20:31:14 88° 355° (N) 1,150 4.4 -7.6°
Drops below altitude 10° 20:38:08 10° 86° (E) 2,789 6.0 -8.4°
Sets 20:40:33 0° 87° (E) 3,632 6.6 -8.7°
